Wetbulb
74.34 74.31 74.34 74.28 74.09 74.04 73.56 73.13 72.71 72.21 71.99 72.49 72.07 72.08 72.99 73.11 71.99 72.36 72.20 71.92 72.93 72.98 72.83 73.02 73.15 72.90 72.92 72.73 72.99 72.65 72.93 73.14 73.32
74.33 74.27 74.04 74.20 74.15 73.88 73.44 72.77 72.43 71.95 71.75 71.66 71.45 71.63 72.82 71.33 71.45 71.38 71.84 71.66 72.64 72.90 72.65 72.55 72.41 72.35 72.33 72.16 72.15 72.18 72.18 72.37 72.89
74.04 74.07 73.86 74.11 74.09 73.80 73.28 72.53 71.95 71.31 70.82 70.70 70.41 70.96 72.18 70.59 70.31 70.90 71.15 71.90 72.37 72.60 72.29 71.99 71.90 71.89 71.59 71.30 71.57 71.66 71.54 71.67 71.96
73.79 73.35 73.64 73.93 73.83 73.60 73.20 72.42 71.80 70.94 70.24 69.77 69.48 70.02 71.56 69.61 70.06 70.00 70.26 71.44 71.67 71.85 71.65 71.24 71.09 70.94 70.92 70.90 70.89 70.63 70.67 70.79 70.85
73.67 73.49 73.41 73.61 73.54 73.22 73.00 72.19 71.67 70.58 69.63 69.25 68.68 69.48 70.60 69.77 69.55 69.74 69.67 71.11 71.40 71.20 70.58 70.14 69.84 69.86 69.67 69.54 69.33 69.00 68.81 68.72 69.19
73.27 73.11 73.33 72.93 73.28 72.91 72.58 71.95 71.12 70.07 69.13 68.47 68.52 69.71 68.03 69.09 69.08 68.91 70.01 70.30 70.49 70.22 69.42 69.08 68.89 68.66 68.35 67.92 67.76 67.68 67.52 67.49 67.61
72.30 72.60 72.90 72.86 72.85 72.37 72.02 71.82 70.77 70.01 68.01 66.74 67.57 67.38 67.27 68.81 67.83 67.80 69.96 69.49 69.22 68.76 68.25 67.94 67.84 67.58 67.28 67.10 67.11 66.99 66.82 66.74 66.77
71.64 72.17 71.68 71.69 71.93 72.10 71.31 70.69 69.60 68.91 67.93 66.53 66.62 66.76 66.76 67.60 67.04 67.77 69.28 68.68 68.15 67.96 68.31 68.05 67.23 67.01 66.82 66.67 66.62 66.47 66.33 66.19 66.05
71.28 70.68 69.64 72.70 71.32 70.59 70.90 70.44 70.26 68.45 67.63 66.73 65.90 65.92 65.78 66.16 65.60 66.58 68.37 68.19 68.20 68.99 68.47 67.64 67.08 66.55 66.19 66.09 66.05 65.87 65.78 65.75 65.60
71.51 71.08 70.87 71.29 71.42 71.16 70.86 70.14 69.92 67.86 66.00 65.49 65.04 65.00 65.13 65.14 64.74 65.52 67.80 68.80 68.43 68.20 67.93 67.15 66.06 65.95 65.68 65.65 65.48 65.11 65.25 65.16 64.94
69.60 70.51 70.44 70.99 72.11 71.09 71.08 70.75 68.56 66.36 65.55 64.91 64.59 64.47 64.96 64.63 64.36 64.63 66.77 67.68 68.03 67.68 67.44 66.77 65.90 65.65 65.34 65.38 64.85 64.79 64.55 64.48 64.24
69.74 67.84 68.49 69.76 70.88 70.07 70.47 69.14 67.82 65.52 64.69 64.10 62.81 62.60 63.47 63.73 63.54 65.08 65.70 66.23 66.65 67.51 66.49 66.19 65.81 65.10 65.84 65.29 64.46 64.24 64.01 63.59 63.42
69.04 68.45 68.29 69.40 69.59 69.15 68.56 67.20 66.29 64.64 63.74 63.47 62.75 62.23 63.12 63.08 63.05 65.52 65.60 65.80 64.89 65.76 66.52 65.96 65.71 65.52 65.52 64.73 64.41 63.83 63.58 63.38 62.95
67.43 68.02 68.45 67.91 66.87 67.57 67.05 65.84 64.48 63.50 62.60 61.15 60.58 60.53 60.82 62.12 63.59 64.45 64.81 64.78 65.19 64.71 65.45 65.87 65.76 65.27 65.02 64.27 63.87 63.43 63.12 62.84 62.37
67.08 66.53 67.17 67.09 66.02 64.56 64.25 63.35 63.05 62.07 61.55 60.26 59.12 59.72 60.96 61.43 61.45 62.73 63.37 64.38 64.30 63.89 63.55 64.17 64.20 64.95 64.32 63.84 63.56 63.16 62.70 62.31 61.98
66.76 65.23 65.31 65.61 64.96 63.53 63.58 62.14 60.38 59.97 61.14 58.80 57.15 57.64 59.73 60.24 60.49 62.13 61.72 62.67 63.38 62.75 63.01 63.40 62.95 63.14 64.61 63.52 63.23 63.02 62.44 61.81 61.30
65.98 64.61 64.21 65.22 64.57 63.85 62.38 60.63 58.66 58.13 60.31 56.74 56.13 53.09 55.53 58.24 59.85 60.78 60.98 61.29 60.87 60.89 61.58 61.04 62.12 61.82 62.31 62.40 62.85 62.28 61.15 60.57 60.04
65.52 65.17 64.12 64.50 64.43 63.02 61.39 60.42 58.41 56.46 58.35 58.60 56.83 52.96 51.34 54.75 58.01 59.37 60.16 60.04 60.09 59.73 60.01 59.49 60.58 60.50 60.39 60.81 60.20 60.81 60.21 59.09 58.60
64.89 63.89 63.89 63.97 63.55 62.72 60.58 60.96 60.27 58.58 57.00 58.49 57.23 56.03 56.70 51.38 51.65 56.93 59.24 59.76 58.90 58.53 60.26 59.08 59.80 60.56 60.83 59.74 59.95 60.14 59.69 58.43 56.92
64.33 63.14 63.31 62.81 63.80 63.09 62.53 61.69 60.46 59.38 58.18 57.49 55.08 55.42 56.05 54.87 52.56 50.77 54.76 57.92 58.97 59.11 59.56 60.51 59.62 59.78 60.51 60.00 58.27 58.84 58.29 57.44 55.66
MSLP
1013.16 1013.36 1013.55 1013.87 1014.01 1014.07 1014.30 1014.45 1014.41 1014.49 1014.60 1014.64 1014.57 1014.29 1014.11 1013.79 1013.90 1014.00 1014.25 1014.21 1013.98 1013.88 1013.89 1013.71 1013.61 1013.43 1013.22 1012.94 1012.65 1012.48 1012.11 1011.66 1011.30
1013.24 1013.57 1013.80 1013.98 1014.11 1014.32 1014.49 1014.63 1014.71 1014.87 1014.92 1014.92 1014.84 1014.51 1014.38 1014.24 1014.37 1014.51 1014.66 1014.65 1014.50 1014.43 1014.36 1014.22 1014.12 1014.09 1013.94 1013.77 1013.38 1013.14 1012.97 1012.64 1012.25
1013.54 1013.72 1013.83 1014.10 1014.18 1014.36 1014.62 1014.75 1014.86 1015.11 1015.30 1015.22 1015.20 1014.86 1014.77 1014.69 1014.84 1014.79 1015.08 1015.25 1015.01 1015.03 1015.00 1014.83 1014.78 1014.69 1014.58 1014.41 1014.22 1013.92 1013.70 1013.51 1013.25
1013.66 1013.89 1014.06 1014.20 1014.45 1014.54 1014.77 1014.95 1015.08 1015.30 1015.55 1015.58 1015.50 1015.17 1014.86 1015.05 1015.35 1015.37 1015.53 1015.71 1015.58 1015.65 1015.59 1015.45 1015.50 1015.48 1015.30 1015.21 1015.08 1014.87 1014.59 1014.34 1014.13
1013.77 1013.93 1014.15 1014.30 1014.56 1014.75 1014.91 1015.08 1015.26 1015.57 1015.82 1015.83 1015.72 1015.41 1014.93 1015.36 1015.79 1015.95 1016.34 1016.13 1016.03 1016.18 1016.25 1016.15 1016.10 1016.07 1016.04 1015.99 1015.95 1015.87 1015.64 1015.29 1015.05
1013.71 1013.74 1014.06 1014.37 1014.63 1014.89 1015.07 1015.25 1015.50 1015.86 1016.07 1016.12 1015.91 1015.66 1014.88 1015.31 1016.14 1016.62 1016.87 1016.63 1016.65 1016.64 1016.75 1016.74 1016.80 1016.71 1016.68 1016.71 1016.66 1016.61 1016.55 1016.38 1016.14
1012.85 1013.38 1014.04 1014.51 1014.74 1015.00 1015.21 1015.35 1015.66 1015.86 1015.77 1016.06 1016.00 1015.39 1015.07 1015.31 1016.41 1017.10 1017.16 1017.04 1017.22 1017.20 1017.16 1017.16 1017.38 1017.50 1017.48 1017.48 1017.41 1017.38 1017.30 1017.22 1017.05
1012.70 1013.02 1013.71 1014.25 1014.81 1015.01 1015.42 1015.57 1015.44 1015.33 1015.17 1015.56 1015.10 1015.02 1015.03 1015.35 1016.62 1017.45 1017.48 1017.45 1017.54 1017.69 1017.73 1017.88 1017.82 1018.11 1018.17 1018.20 1018.12 1018.01 1017.98 1017.93 1017.92
1012.74 1013.18 1013.54 1013.72 1014.31 1014.65 1015.06 1015.14 1015.16 1015.08 1014.92 1015.03 1014.99 1015.07 1015.25 1015.54 1017.03 1017.69 1017.93 1017.90 1017.94 1018.10 1018.20 1018.41 1018.63 1018.63 1018.77 1018.75 1018.97 1018.78 1018.68 1018.61 1018.49
1013.20 1013.31 1013.33 1013.86 1014.16 1014.53 1014.98 1015.25 1015.27 1015.05 1015.17 1015.11 1015.04 1015.10 1015.35 1016.30 1017.41 1018.07 1018.17 1018.32 1018.34 1018.37 1018.59 1018.90 1018.98 1019.18 1019.22 1019.23 1019.42 1019.50 1019.45 1019.39 1019.33
1013.23 1013.53 1013.58 1013.71 1014.12 1014.49 1014.92 1015.13 1015.47 1015.05 1015.27 1015.59 1015.41 1015.27 1015.58 1017.04 1017.73 1018.08 1018.42 1018.62 1018.67 1018.75 1018.98 1019.27 1019.35 1019.63 1019.80 1019.81 1019.89 1020.02 1020.06 1020.06 1020.12
1012.70 1013.23 1013.41 1013.62 1013.86 1014.54 1014.82 1014.98 1015.26 1015.12 1015.79 1016.44 1016.34 1015.93 1016.02 1017.14 1017.82 1018.21 1018.55 1018.97 1019.03 1019.28 1019.43 1019.64 1019.78 1019.93 1020.24 1020.48 1020.46 1020.51 1020.53 1020.55 1020.58
1012.68 1013.00 1013.37 1013.81 1014.12 1014.60 1015.07 1015.44 1015.69 1016.14 1016.71 1017.14 1017.48 1017.05 1016.55 1017.17 1017.59 1018.38 1018.78 1019.00 1019.11 1019.79 1019.94 1020.02 1020.23 1020.35 1020.54 1020.81 1021.01 1021.09 1021.14 1021.19 1021.15
1013.31 1013.38 1013.49 1014.10 1014.68 1014.99 1015.34 1015.71 1016.09 1016.70 1017.42 1017.74 1018.26 1018.20 1017.60 1017.74 1017.87 1018.60 1019.13 1019.25 1019.32 1019.93 1020.34 1020.50 1020.65 1020.77 1020.83 1021.01 1021.29 1021.53 1021.62 1021.65 1021.65
1013.01 1013.71 1013.64 1014.10 1014.89 1015.26 1015.66 1016.02 1016.62 1017.20 1017.74 1018.11 1018.73 1019.25 1019.13 1018.70 1018.80 1019.00 1019.41 1019.43 1019.75 1020.21 1020.55 1020.92 1021.02 1021.17 1021.26 1021.20 1021.50 1021.82 1022.03 1022.11 1022.08
1012.98 1013.60 1013.87 1014.12 1014.77 1015.14 1015.61 1016.32 1016.91 1017.63 1018.06 1018.51 1019.56 1019.73 1019.91 1019.27 1019.67 1019.47 1019.79 1019.85 1019.95 1020.23 1020.48 1020.98 1021.29 1021.41 1021.57 1021.65 1021.62 1021.90 1022.30 1022.42 1022.44
1012.94 1013.52 1013.80 1014.26 1014.64 1015.12 1015.72 1016.42 1017.02 1017.82 1018.04 1018.43 1019.17 1019.84 1020.27 1020.17 1020.30 1020.27 1020.24 1019.81 1019.88 1020.16 1020.55 1020.72 1021.03 1021.20 1021.68 1022.12 1022.15 1022.22 1022.46 1022.68 1022.76
1012.84 1012.92 1013.72 1014.07 1014.56 1015.05 1015.64 1016.14 1016.96 1017.36 1018.08 1018.24 1018.17 1019.26 1019.60 1020.34 1020.52 1020.54 1020.36 1020.03 1019.99 1019.84 1019.95 1020.26 1020.91 1021.31 1021.78 1022.18 1022.60 1022.51 1022.72 1022.91 1023.03
1012.88 1013.26 1013.46 1013.92 1014.42 1014.91 1015.29 1015.82 1016.17 1016.62 1017.79 1018.37 1018.38 1018.46 1018.52 1019.23 1020.23 1020.51 1020.15 1020.03 1019.90 1019.70 1019.87 1020.31 1020.48 1020.71 1021.34 1022.23 1022.57 1022.74 1022.95 1023.14 1023.25
1012.65 1013.19 1013.19 1013.61 1014.06 1014.56 1015.04 1015.67 1016.18 1016.57 1017.30 1017.64 1018.40 1018.59 1018.49 1018.92 1019.41 1019.82 1019.96 1020.05 1019.87 1019.72 1020.10 1020.52 1020.81 1021.15 1021.57 1022.07 1022.62 1022.81 1023.07 1023.28 1023.41
Wind_Speed
6 8 10 10 10 11 10 10 11 10 10 10 7 7 10 13 11 12 12 12 17 19 20 20 21 23 24 24 25 27 27 28 27
7 8 8 10 12 10 10 10 10 9 9 9 6 7 11 11 9 10 10 13 18 19 20 21 22 23 24 25 26 27 27 28 28
7 8 9 10 12 12 11 10 10 9 7 7 5 8 11 10 8 9 10 13 19 20 20 21 21 22 23 24 26 26 27 28 28
7 7 8 10 10 11 11 10 9 9 7 6 5 6 7 11 7 8 8 14 17 20 21 22 22 23 23 24 25 26 26 27 28
7 7 7 9 9 10 10 10 10 8 6 6 3 3 7 13 7 7 7 14 19 19 19 20 21 23 23 24 24 25 25 26 27
11 9 10 8 10 10 10 11 11 9 7 4 4 7 1 11 8 7 11 16 18 19 19 20 21 22 23 22 23 24 24 25 25
6 9 10 8 9 9 10 12 12 11 7 5 7 5 3 11 9 7 12 15 16 17 19 20 19 20 21 21 22 23 24 24 25
7 5 6 6 7 5 7 9 7 9 4 6 4 4 4 8 7 8 10 13 16 17 19 19 20 20 20 21 22 22 23 24 24
3 2 3 5 6 8 7 6 6 4 6 7 5 5 4 7 7 7 11 11 16 17 20 20 19 20 20 21 21 22 23 23 24
4 3 5 5 5 5 5 8 5 6 5 2 4 6 6 14 6 5 10 12 16 18 19 18 18 19 20 21 21 21 22 22 23
5 4 6 5 4 4 6 6 5 6 6 2 4 5 10 12 6 5 7 13 15 17 18 17 17 18 19 20 19 20 20 21 21
7 5 6 6 5 6 6 7 7 6 3 5 7 5 9 11 7 7 7 7 15 15 15 17 17 17 19 18 18 19 19 19 20
6 5 4 2 3 3 5 6 2 5 5 2 3 3 6 11 8 7 7 5 9 10 14 16 16 17 18 17 17 17 17 18 18
5 6 4 4 3 4 5 3 6 6 5 5 6 8 6 4 5 8 7 9 8 7 12 13 14 15 16 15 16 15 15 16 16
6 4 5 5 5 4 3 6 4 5 5 6 7 4 4 5 4 7 6 7 9 7 8 6 8 13 13 14 14 14 13 14 14
7 5 5 6 7 6 6 3 9 4 6 7 6 4 3 6 4 4 3 4 8 7 6 5 4 5 9 11 12 12 11 11 12
8 7 6 7 6 9 8 8 5 2 7 5 3 4 3 3 3 1 4 6 5 7 9 8 9 6 6 7 9 8 9 9 9
8 7 6 7 7 6 8 9 6 5 4 8 3 4 3 4 0 4 4 7 6 6 8 6 9 9 6 7 6 7 6 6 6
5 7 7 7 6 9 9 9 9 9 9 6 2 1 3 5 4 3 3 5 5 4 2 5 4 4 7 9 8 7 5 4 4
8 8 8 7 5 7 10 10 8 9 8 7 2 1 2 3 5 5 4 4 4 2 3 1 3 2 3 4 7 7 6 4 4
Wind_Direction
160 147 140 137 130 124 116 107 100 92 87 73 50 11 3 53 64 68 72 72 68 69 63 62 60 54 54 53 52 51 48 46 46
163 159 147 141 136 133 126 116 108 96 89 79 51 1 32 59 57 72 66 70 70 67 64 63 63 59 58 56 54 51 50 48 46
166 169 159 149 143 144 139 129 121 105 88 77 44 348 360 82 59 68 68 72 73 71 68 63 60 62 60 57 54 51 48 47 47
167 174 169 157 152 152 147 137 129 111 100 85 55 346 340 80 59 65 72 69 73 71 72 72 69 65 63 60 59 54 50 48 44
178 171 181 168 160 165 151 143 125 127 113 102 112 251 280 92 73 62 77 81 79 76 71 71 68 67 65 63 61 59 54 51 47
163 198 158 178 171 167 158 146 131 134 124 131 216 259 76 106 80 79 82 83 81 81 79 74 72 70 65 66 65 62 61 57 55
195 151 158 189 185 176 166 152 147 180 154 170 239 244 150 101 100 88 87 89 89 87 84 82 78 76 74 72 70 68 65 62 59
213 160 174 189 199 176 176 162 185 206 188 166 204 167 120 103 95 96 104 102 99 92 89 87 88 81 78 73 71 69 67 66 63
225 234 246 138 192 195 184 203 212 221 199 183 180 157 146 100 97 101 94 104 106 102 95 89 87 87 82 77 72 69 68 65 65
225 250 278 189 202 190 197 207 218 218 190 229 179 149 147 94 105 116 121 119 111 102 100 98 96 91 88 84 78 73 70 67 64
228 220 239 225 223 185 196 207 208 193 178 163 287 161 114 107 117 149 127 124 116 110 106 105 101 96 91 87 83 78 74 71 67
218 235 228 240 207 202 195 207 211 149 127 5 342 356 116 130 152 141 133 125 111 108 110 106 102 103 94 90 85 79 76 74 71
268 238 239 277 270 177 162 164 179 141 154 174 1 343 137 127 168 122 136 136 118 112 119 110 109 106 101 94 89 86 83 76 72
224 262 190 142 87 165 164 153 151 156 142 85 49 354 73 60 98 124 141 128 112 115 110 118 115 114 110 108 95 88 83 79 74
191 218 215 187 147 124 122 137 135 135 133 90 63 57 12 69 62 114 120 122 123 126 118 121 123 120 116 110 104 96 89 83 78
215 197 214 193 160 159 146 149 144 121 138 111 83 38 357 74 73 93 106 152 141 141 134 138 125 121 113 121 112 104 93 83 76
194 210 212 197 189 175 149 153 128 105 171 143 121 134 69 42 29 319 214 203 163 144 170 180 162 152 127 85 78 97 101 92 83
237 200 220 205 193 182 160 157 155 144 186 172 136 138 168 132 161 228 239 234 171 179 213 127 175 136 117 136 106 94 104 101 90
201 222 219 209 190 174 164 163 163 150 181 181 58 358 136 159 166 232 232 230 230 202 168 146 187 163 136 84 107 116 109 113 96
191 218 214 220 195 192 173 174 169 166 183 176 135 141 137 185 156 164 175 216 223 185 168 103 110 153 131 156 134 140 137 129 115